Погода в Аинази

Погода в Аинази : погода сейчас, прогноз погоды и архив. Всё, что Вы хотите узнать о погоде в Аинази!

Поиск расширенной информации на нашем сайте:

Другие новости

Новости СМИ2

Главная страница сайта

Новости сайта

03.07.2017

Напоминаем, что на нашем специализированном сайте Метеоцентр.Азия вы можете получить высокодетализированные автоматические прогнозы погоды по пунктам России, СНГ и мира в авиационном формате (включающие направление и скорость ветра, видимость, явления погоды, количество и форму облачности, нижнюю и верхнюю границу облачности).

Рекомендуем: по низкой цене: продажа офиса в башне Город Столиц на пресненской набережной на выгодных условиях

Погода в Аинази - сегодня

Время (UTC), дата Ветер
(°,м/с) 
Видим.   Явления Облачность Т
(°С)
Тd
(°С)
f(%) Тe
(°С)
Pmin
(гПа)
dP
(гПа)
Po
(мм)
O2
(г/м3)
Тmin Tmax R s Состояние
почвы
15 28.11.17 170 (Ю) 8-11  н/о    н/о 
+1.7 -0.7 84 -2  1008.8  756  303           
12 29.11.17 160 (Ю) 5-8  н/о    н/о 
+1.7 +0.9 94 -1  1008.8  756  303           
15 29.11.17 150 (ЮВ) 4-6  н/о    н/о 
+2 +1 93 1008.8  756  302           
03 30.11.17 130 (ЮВ) 2-3  н/о    н/о 
+0.3 +0.1 99 1007.6  -0.7  755  304           
00 01.12.17 070 (В) 6-8  н/о    н/о 
+0.2 -0.1 98 -3  1007.6  -2.9  755  304           
06 01.12.17 070 (В) 6-8  н/о    н/о 
+0.1 -0.2 98 -3  1001.7  -2.6  751  302           
18 01.12.17 080 (В) 1-1  н/о    н/о 
+0.3 +0.3 100 +1  1002.1  1.3  751  302           
21 01.12.17 310 (СЗ) 3-4  н/о    н/о 
+1.4 +0.6 94 1004.2  753  302           
21 02.12.17 220 (ЮЗ) 6-9  н/о    н/о 
+3.6 +0.8 82 +1  1018.3  763  303           
12 03.12.17 200 (Ю) 9-17  н/о    н/о 
+3.4 -0.1 78 1011.7  -2.2  758  302           
18 03.12.17 190 (Ю) 9-15  н/о    н/о 
+2.8 +0 82 -1  1008.7  -1.3  756  301           
09 06.12.17 280 (З) 5-9  н/о    н/о 
+3.7 +0.2 78 +1  1005.7  0.3  754  300           
12 06.12.17 300 (СЗ) 6-10  н/о    н/о 
+3.4 -1.1 72 +1  1006  0.3  754  300           
21 06.12.17 320 (СЗ) 3-4  н/о    н/о 
+2.7 -0.9 77 +1  1008.3  0.3  756  302           
09 07.12.17 160 (Ю) 4-6  н/о    н/о 
+0.9 -0.2 92 -1  1006.3  -0.8  754  303           
15 07.12.17 150 (ЮВ) 5-8  н/о    н/о 
+1 +0.6 97 -2  1002.5  -2  751  302           
09 08.12.17 190 (Ю) 7-11  н/о    н/о 
+3.8 +3.1 95 +1  993.7  -0.3  745  295           
00 09.12.17 190 (Ю) 6-11  н/о    н/о 
+4.1 +2.1 87 +1  997  0.3  747  296           
06 10.12.17 150 (ЮВ) 5-7  н/о    н/о 
-0.6 -3.5 81 -4  998.6  -0.6  748  303           
09 10.12.17 170 (Ю) 6-9  н/о    н/о 
+0 -3.8 76 -3  998.7  748  302           
03 11.12.17 120 (ЮВ) 4-6  н/о    н/о 
-2.4 -3.6 91 -5  997.9  748  304           
03 12.12.17 120 (ЮВ) 7-11  н/о    н/о 
+1 -0.9 87 -3  995.5  746  300           
06 12.12.17 130 (ЮВ) 9-13  н/о    н/о 
+1.9 +0.6 91 -2  992.3  744  297           
12 12.12.17 160 (Ю) 7-11  н/о    н/о 
+3.6 +2.8 94 988.6  -2.1  741  294           
15 13.12.17 200 (Ю) 6-10  н/о    н/о 
+3.6 +1.8 88 +1  1004.6  0.4  753  299           
Время (UTC), дата Ветер
(°,м/с) 
Видим.   Явления Облачность Т
(°С)
Тd
(°С)
f(%) Тe
(°С)
Pmin
(гПа)
dP
(гПа)
Po
(мм)
O2
(г/м3)
Тmin Tmax R s Состояние
почвы

Для получения пояснительной информации подведите курсор к названию столбца.

ПОГОДА в Аинази - архив

Всё, что Вы хотите узнать о погоде в Аинази - удобно и подробно!

Выберите нужную дату (начиная с 1 января 2015* года) и нажмите кнопку "Найти".
Будут отображены архивные сводки погоды по пункту Аинази, начиная с указанной даты.


Отображать данные в формате CSV (для использования в таблицах Excel)


Внимание! Наш архив погоды предназначен исключительно для личного некоммерческого использования в познавательных целях. Если Вам необходимы официальные справки о состоянии погоды (для производственных, юридических, коммерческих и т.п. целей), обращайтесь в органы Росгидромета.

*Примечание: данная дата относится к архиву по метеостанциям СССР (Россия, СНГ, Балтия).
Архив по метеостанциям Зарубежной Европы и Азии (кроме Китая) хранится 10 дней, по другим регионам земного шара (Китай, Африка, Америка, Австралия, Океания) - 1 день.

Аинази - район местоположения метеостанции


Название, широта, долгота, высота метеостанции:
Аинази 57.9°ш. 24.4°д. 5 м над ур. моря [Латвия]

Дополнительная информация

В oтличие oт бoльшинства пoгoдных сайтoв мы публикуем пoдрoбную метеoинфoрмацию в детальнoм прoфессиoнальнoм фoрмате.

Характеристики температуры и влажнoсти вoздуха измеряются на высoте 2 м в тени вдали oт зданий и деревьев.
Скoрoсть ветра измеряется на высoте 10 м (на урoвне рoста челoвека скoрoсть ветра ниже в 1.5-2 раза). Если метеoстанция нахoдится в гoрoде или в лесу, тo скoрoсть ветра занижена на 2-4 м/с пo сравнению с oткрытым местoм. Скoрoсть ветра над акватoриями крупных рек и oзёр, а также на вершинах хoлмoв на 2-5 м/с выше, чем в oбычных услoвиях.
Атмoсфернoе давление в разных тoчках местнoсти мoжет значительнo oтличаться oт давления на метеoстанции, в зависимoсти oт услoвий рельефа (при пoдъёме на 10 м давление пoнижается примернo на 1 мм рт.ст.).